Poughkeepsie, NY

7:50 AM EDT on June 26, 2017 (GMT -0400)
Dutchess County

Weather History for KPOU - January, 2012

Change the Weather History Date:

Monday, January 30, 2012

  Actual Average Record
Temperature  
Mean Temperature 32 °F 26 °F  
Max Temperature 39 °F 36 °F 60 °F (2006)
Min Temperature 24 °F 16 °F -15 °F (1961)
Degree Days  
Heating Degree Days 33 39  
Month to date heating degree days 984 1186  
Since 1 July heating degree days 2816 3515  
Cooling Degree Days 0 0  
Month to date cooling degree days 0 0  
Year to date cooling degree days 0 0  
Moisture  
Dew Point 16 °F    
Average Humidity 55    
Maximum Humidity 75    
Minimum Humidity 35    
Precipitation  
Precipitation 0.00 in 0.09 in 0.69 in (1966)
Month to date precipitation 2.14 2.98  
Year to date precipitation 2.14 2.98  
Sea Level Pressure  
Sea Level Pressure 30.17 in    
Wind  
Wind Speed 8 mph (West)    
Max Wind Speed 18 mph    
Max Gust Speed 26 mph    
Visibility 10 miles    
Events      
T = Trace of Precipitation, MM = Missing Value Source: NWS Daily Summary

Daily Weather History Graph

Daily Weather History Graph

Search for Another Location

Airport or City:

Trip Planner

Search our weather history database for the weather conditions in past years. The results will help you decide how hot, cold, wet, or windy it might be!

Date:

Astronomy

Jan. 30, 2012 Rise Set
Actual Time 7:09 AM EST 5:08 PM EST
Civil Twilight 6:40 AM EST 5:37 PM EST
Nautical Twilight 6:06 AM EST 6:11 PM EST
Astronomical Twilight 5:34 AM EST 6:43 PM EST
Moon 10:24 AM EST (1/30) No Moon Set
Length of Visible Light 10h 57m
Length of Day
9h 58m
Waxing Crescent, 46% of the Moon is Illuminated
Jan 30
Waxing Crescent
Jan 30
First Quarter
Feb 7
Full
Feb 14
Last Quarter
Feb 21
New

Hourly Weather History & Observations

Time (EST) Temp. Windchill Dew Point Humidity Pressure Visibility Wind Dir Wind Speed Gust Speed Precip Events Conditions
12:53 AM 39.0 °F 34.0 °F 16.0 °F 39% 29.95 in 10.0 mi SW 6.9 mph - N/A   Overcast
1:53 AM 39.0 °F 30.6 °F 19.0 °F 45% 29.96 in 10.0 mi SW 15.0 mph 24.2 mph N/A   Mostly Cloudy
2:53 AM 36.0 °F 26.3 °F 19.9 °F 52% 29.98 in 10.0 mi WSW 16.1 mph 23.0 mph N/A   Clear
3:53 AM 35.1 °F 30.1 °F 19.0 °F 52% 30.00 in 10.0 mi Variable 5.8 mph - N/A   Scattered Clouds
4:53 AM 34.0 °F 26.0 °F 21.0 °F 59% 30.04 in 10.0 mi WSW 10.4 mph - N/A   Overcast
5:53 AM 34.0 °F 28.0 °F 18.0 °F 52% 30.08 in 10.0 mi WNW 6.9 mph - N/A   Mostly Cloudy
6:53 AM 30.0 °F - 17.1 °F 59% 30.12 in 10.0 mi Calm Calm - N/A   Scattered Clouds
7:53 AM 32.0 °F 23.0 °F 16.0 °F 52% 30.15 in 10.0 mi WNW 11.5 mph - N/A   Mostly Cloudy
8:53 AM 34.0 °F 26.0 °F 16.0 °F 48% 30.17 in 10.0 mi West 10.4 mph - N/A   Scattered Clouds
9:53 AM 35.1 °F 25.5 °F 12.9 °F 40% 30.21 in 10.0 mi West 15.0 mph 23.0 mph N/A   Mostly Cloudy
10:53 AM 36.0 °F 25.6 °F 12.9 °F 39% 30.22 in 10.0 mi West 18.4 mph 23.0 mph N/A   Overcast
11:53 AM 37.0 °F 28.5 °F 12.0 °F 36% 30.23 in 10.0 mi West 13.8 mph 24.2 mph N/A   Mostly Cloudy
12:53 PM 35.1 °F 25.9 °F 10.0 °F 35% 30.22 in 10.0 mi West 13.8 mph 21.9 mph N/A   Partly Cloudy
1:53 PM 36.0 °F 27.1 °F 10.9 °F 36% 30.20 in 10.0 mi West 13.8 mph - N/A   Scattered Clouds
2:53 PM 35.1 °F 27.4 °F 10.9 °F 37% 30.22 in 10.0 mi West 10.4 mph 19.6 mph N/A   Scattered Clouds
3:53 PM 35.1 °F 26.9 °F 10.9 °F 37% 30.24 in 10.0 mi West 11.5 mph 20.7 mph N/A   Clear
4:53 PM 33.1 °F 27.7 °F 12.0 °F 42% 30.24 in 10.0 mi WNW 5.8 mph - N/A   Clear
5:53 PM 32.0 °F - 12.0 °F 44% 30.26 in 10.0 mi Calm Calm - N/A   Clear
6:53 PM 28.0 °F 24.2 °F 15.1 °F 58% 30.28 in 10.0 mi SSE 3.5 mph - N/A   Clear
7:53 PM 24.8 °F - 15.8 °F 69% 30.28 in 10.0 mi Calm Calm - N/A   Clear
8:53 PM 27.0 °F - 19.0 °F 72% 30.27 in 10.0 mi Calm Calm - N/A   Overcast
9:53 PM 27.0 °F - 19.0 °F 72% 30.25 in 10.0 mi Calm Calm - N/A   Overcast
10:53 PM 27.0 °F - 19.9 °F 75% 30.25 in 10.0 mi Calm Calm - N/A   Overcast
11:53 PM 30.0 °F - 19.9 °F 66% 30.23 in 10.0 mi Calm Calm - N/A   Overcast